Location: Bli��� Lhota
(48.7570°N, 14.0120°E)
Time: 08:58:54
(UTC+00:00)

Cosmos 1125 Rocket - Pass Details

Date: 18 September 2020
Orbit: 758 x 780 km, 74.0° (Epoch: 24 October)

Event Time Altitude Azimuth Distance (km) Brightness Sun altitude
Rises 18:57:22 0° 183° (S) 3,243 6.5 -18.0°
Reaches altitude 10° 18:59:48 10° 178° (S) 2,323 5.7 -18.4°
Maximum altitude 19:04:50 47° 105° (ESE) 1,027 3.7 -19.1°
Drops below altitude 10° 19:09:55 10° 33° (NNE) 2,343 5.9 -19.9°
Sets 19:12:23 0° 28° (NNE) 3,275 6.8 -20.2°
